Powrót do katalogu

KORONAS-FOTON

AktywnyNaukaPO
NORAD 33504·PAYLOAD·🇷🇺 Russia

Wystrzelony Jan 30, 2009 z Plesetsk Cosmodrome

Loading…

Następne Przeloty (najbliższe 24 godziny)

TLE

ŚwieżeSource: Space-Track

Epoka: Sep 14, 2026, 22:40 UTC

1 33504U 09003A   26257.94447383  .00011355  00000-0  22003-3 0  9996
2 33504  82.4260  78.4846 0009596 182.9247 177.1948 15.47491977974975

Śledź KORONAS-FOTON w czasie rzeczywistym z AllMySat

Download on the App Store